Home > Weather > Brampton > Past weeks

Flag for Canada Past Weather in Brampton, Ontario, Canada — Yesterday and Last 2 Weeks

Now
79 °F

Passing clouds.


Feels Like: 80 °F
Forecast: 65 / 87 °F
Wind: 7 mph from Northwest

Location: Toronto Pearson International Airport

Current Time: Jul 26, 2016 at 12:14:29 PM

Latest Report: Jul 26, 2016 at 11:00 AM


Visibility: 15 mi

Pressure: 30.00 "Hg

Humidity: 51%

Dew Point: 59 °F

Location of BramptonLocation

Past Weather in Brampton — Graph

°F

Brampton Temperature Yesterday

Maximum temperature yesterday: 90 °F (at 4:00 PM)
Minimum temperature yesterday: 72 °F (at 12:00 AM)
Average temperature yesterday: 78 °F

High & Low Weather Summary for the Past Weeks

 TemperatureHumidityPressure
High95 °F (Jul 13, 3:00 PM)94% (Jul 14, 1:00 AM)30.28 "Hg (Jul 14, 1:00 AM)
Low57 °F (Jul 17, 5:00 AM)26% (Jul 22, 6:00 PM)29.71 "Hg (Jul 14, 6:00 PM)
Average75 °F58%29.97 "Hg
* Reported Jul 11 11:00 AM — Jul 26 11:00 AM, Brampton, Weather by CustomWeather, © 2016

Note: Actual official high and low records may vary slightly from our data, if they occured in-between our weather recording intervals... More about our weather records

Advertising

Brampton Weather History for the Previous 24 Hours

Scroll right to see more
 ConditionsComfort  
Time TempWeatherWind HumidityBarometerVisibility
11:00 AM
Tue, Jul 26
79 °FPassing clouds.7 mph51%30.00 "Hg15 mi
10:00 AM75 °FPassing clouds.6 mph61%29.99 "Hg15 mi
9:00 AM73 °FPassing clouds.7 mph65%29.99 "Hg15 mi
8:00 AM70 °FPassing clouds.10 mph69%29.99 "Hg15 mi
7:00 AM66 °FPassing clouds.7 mph78%29.97 "Hg15 mi
6:00 AM64 °FClear.6 mph78%29.96 "Hg15 mi
5:00 AM64 °FClear.8 mph78%29.94 "Hg15 mi
4:00 AM66 °FClear.10 mph73%29.93 "Hg15 mi
3:00 AM68 °FClear.12 mph73%29.92 "Hg15 mi
2:00 AM70 °FClear.13 mph69%29.91 "Hg15 mi
1:00 AM72 °FClear.14 mph65%29.91 "Hg15 mi
12:00 AM73 °FClear.14 mph65%29.90 "Hg15 mi
11:00 PM
Mon, Jul 25
77 °FClear.13 mph57%29.89 "Hg15 mi
10:00 PM75 °FClear.7 mph61%29.87 "Hg15 mi
9:00 PM81 °FPassing clouds.10 mph51%29.86 "Hg15 mi
8:00 PM82 °FPassing clouds.17 mph45%29.83 "Hg15 mi
7:00 PM86 °FPassing clouds.17 mph38%29.82 "Hg15 mi
6:00 PM88 °FPassing clouds.18 mph40%29.81 "Hg15 mi
5:00 PM88 °FScattered clouds.21 mph40%29.81 "Hg15 mi
4:00 PM90 °FPartly sunny.22 mph41%29.81 "Hg15 mi
3:00 PM88 °FScattered clouds.17 mph46%29.81 "Hg15 mi
2:00 PM84 °FPartly sunny.12 mph66%29.81 "Hg15 mi
1:00 PM81 °FBroken clouds.13 mph79%29.83 "Hg15 mi
12:00 PM79 °FOvercast.10 mph84%29.84 "Hg10 mi
Weather by CustomWeather, © 2016

See weather overviewHow to use our weather pages